Location: Brachstadt
(48.6975°N, 10.6755°E)
Time: 23:13:31
(UTC+00:00)

Cosmos 2279 Rocket - Pass Details

Date: 18 September 2020
Orbit: 963 x 979 km, 82.9° (Epoch: 31 October)

Event Time Altitude Azimuth Distance (km) Brightness Sun altitude
Exits shadow 20:20:53 73° 95° (E) 1,023 3.8 -27.8°
Maximum altitude 20:20:53 73° 95° (E) 1,023 3.8 -27.8°
Drops below altitude 10° 20:27:09 10° 12° (NNE) 2,743 6.7 -28.6°
Sets 20:29:41 0° 11° (N) 3,696 7.4 -28.9°
